#timestamp,LO_Frequency,Hit,StdDev 
1669496415.7,286047003.2,N
1669496435.5,286047004.3,N
1669496455.4,286047005.9,N
1669496475.2,286047005.9,N
1669496495.1,286047005.5,N
1669496496.0,286047005.5,N
1669496515.8,286047001.8,N
1669496535.6,286047002.3,N
1669496555.5,286047000.2,N
1669496575.3,286047002.8,N
1669496595.1,286047002.3,N
1669496615.9,286047002.3,N
1669496635.7,286047001.5,N
1669496655.6,286047001.4,N
1669496675.4,286047001.3,N
1669496695.2,286047002.2,N
1669496715.1,286046997.2,N
1669496716.0,286046997.2,N
1669496735.8,286046996.7,N
1669496755.6,286046997.0,N
1669496775.5,286046998.7,N
1669496795.3,286046999.9,N
1669496815.2,286046999.7,N
1669496835.9,286046999.9,N
1669496855.7,286047000.5,N
1669496875.6,286047002.6,N
1669496895.4,286046999.8,N
1669496915.2,286047002.6,N
1669496935.1,286047000.5,N
1669496936.0,286047000.5,N
1669496955.8,286047001.8,N
1669496975.7,286047004.2,N
1669496995.5,286047001.6,N
1669497015.3,286047001.9,N
1669497035.2,286047002.4,N
1669497055.0,286047000.6,N
1669497055.9,286047000.6,N
1669497075.7,286047002.2,N
1669497095.6,286047002.1,N
1669497115.4,286047001.6,N
1669497135.3,286047002.1,N
1669497155.1,286047002.5,N
1669497156.0,286047002.5,N
1669497175.8,286047002.0,N
1669497195.7,286047002.0,N
1669497215.5,286047004.3,N
1669497235.3,286047003.2,N
1669497255.2,286047004.4,N
1669497275.0,286047003.2,N
1669497275.9,286047003.2,N
1669497295.8,286047004.2,N
1669497315.6,286047004.2,Y
1669497335.4,286047002.6,P
1669497355.3,286047000.2,N
1669497375.1,286047002.3,N
1669497395.9,286047000.9,N
1669497415.7,286047001.0,N
1669497435.5,286046999.9,N
1669497455.4,286047002.3,N
1669497475.2,286047002.5,N
1669497495.0,286047002.2,N
1669497495.9,286047002.2,N
1669497515.8,286047004.4,Y
1669497535.6,286047000.0,P
1669497555.5,286046998.1,N
1669497575.3,286046998.8,N
1669497595.1,286046999.9,N
1669497615.9,286047000.7,N
1669497635.7,286047000.2,N
1669497655.5,286047002.3,N
1669497675.4,286046998.5,N
1669497695.2,286046999.0,N
1669497715.1,286046998.8,N
1669497716.0,286046998.8,N
1669497735.8,286046998.4,N
1669497755.6,286046999.0,N
1669497775.5,286046998.4,N
1669497795.3,286047000.7,N
1669497815.1,286047000.8,N
1669497835.9,286046996.7,N
1669497855.7,286046999.3,N
1669497875.6,286046999.5,N
1669497895.4,286047001.2,N
1669497915.2,286046997.3,N
1669497935.1,286046994.9,Y
1669497936.0,286046994.9,P
1669497955.8,286046997.0,N
1669497975.6,286046998.1,N
1669497995.5,286046998.9,N
1669498015.3,286046999.2,N
1669498035.2,286046996.9,N
1669498055.9,286046997.8,N
1669498075.7,286046998.0,N
1669498095.6,286046994.9,Y
1669498115.4,286046998.9,P
1669498135.2,286046999.0,N
1669498155.1,286047000.7,N
1669498156.0,286047000.7,N
1669498175.8,286047000.8,N
1669498195.7,286047002.8,N
1669498215.5,286046999.8,N
1669498235.3,286047000.1,N
1669498255.2,286047002.3,N
1669498275.0,286047002.0,N
1669498275.9,286047002.0,N
1669498295.8,286047003.9,N
1669498315.6,286047004.3,N
1669498335.4,286047001.4,N
1669498355.3,286047002.1,N
1669498375.1,286047002.4,N
1669498395.8,286047001.7,N
1669498415.7,286047004.2,N
1669498435.5,286047001.5,N
1669498455.4,286047002.3,N
1669498475.2,286047002.4,N
1669498495.0,286046998.2,N
1669498495.9,286046998.2,N
1669498515.8,286047000.6,N
1669498535.6,286047000.0,N
1669498555.4,286046999.8,N
1669498575.3,286046998.6,N
1669498595.1,286046998.9,N
1669498615.9,286047000.4,N
1669498635.7,286047000.1,N
1669498655.5,286047000.5,N
1669498675.4,286047002.8,N
1669498695.2,286047000.3,N
1669498715.0,286046998.7,N
1669498715.9,286046998.7,N
1669498735.8,286046998.2,N
1669498755.6,286046998.1,N
1669498775.5,286046999.9,N
1669498795.3,286046999.9,N
1669498815.1,286047002.0,N
1669498835.9,286047001.8,N
1669498855.7,286047002.0,N
1669498875.5,286047002.0,N
1669498895.4,286047002.8,N
1669498915.2,286047001.0,N
1669498935.1,286047000.4,N
1669498936.0,286047000.4,N
1669498985.8,286047000.5,E
1669498995.7,286047000.8,N
1669499015.6,286047000.7,P
1669499035.4,286047000.3,P
1669499055.3,286047000.1,N
1669499075.1,286047000.4,N
1669499076.0,286047000.4,N
1669499095.8,286047002.7,Y
1669499115.7,286047002.6,P
1669499135.5,286046999.8,N
1669499155.4,286047002.5,N
1669499175.2,286047000.1,N
1669499195.0,286047002.6,N
1669499195.9,286047002.6,N
1669499215.8,286047002.7,N
1669499235.6,286047000.2,N
1669499255.4,286047000.9,N
1669499275.3,286046998.1,N
1669499295.1,286046998.3,N
1669499315.9,286047001.2,N
1669499335.7,286046998.7,N
1669499355.5,286047000.7,N
1669499375.4,286047001.1,N
1669499395.2,286047000.5,N
1669499415.0,286047000.5,N
1669499415.9,286047000.5,N
1669499435.8,286047001.0,N
1669499455.6,286047000.2,N
1669499475.5,286047001.0,N
1669499495.3,286046999.9,N
1669499515.1,286047000.5,N
1669499535.9,286046998.6,N
1669499555.7,286046996.5,N
1669499575.6,286046996.7,N
1669499595.4,286046997.5,N
1669499615.2,286046996.8,N
1669499635.1,286046998.5,N
1669499636.0,286046998.5,N
1669499655.8,286046998.3,N
1669499675.6,286047000.6,N
1669499695.5,286046999.7,N
1669499715.3,286047000.1,N
1669499735.2,286046999.9,N
1669499755.9,286047001.0,N
1669499775.7,286047002.8,N
1669499795.6,286046999.9,N
1669499815.4,286046999.7,N
1669499835.2,286047002.7,N
1669499855.1,286047000.3,N
1669499856.0,286047000.3,N
1669499875.8,286046999.9,N
1669499895.7,286047000.3,N
1669499915.5,286047000.1,N
1669499935.3,286046996.5,N
1669499955.2,286046998.3,N
1669499975.0,286047000.7,N
1669499975.9,286047000.7,N
1669499995.7,286046998.7,N
